Time,TemperatureF,DewpointF,PressureIn,WindDirection,WindDirectionDegrees,WindSpeedMPH,WindSpeedGustMPH,Humidity,HourlyPrecipIn,Conditions,Clouds,dailyrainin,SoftwareType,DateUTC
2013-04-12 00:00:00,76.0,72.8,30.16,ESE,112,7.0,17.0,90,0.00,,,-99.99,Weather View 32 v70,2013-04-12 04:00:00,
2013-04-12 00:10:00,76.0,72.8,30.16,East,90,3.0,17.0,90,0.00,,,-99.99,Weather View 32 v70,2013-04-12 04:10:00,
2013-04-12 00:20:00,76.0,72.2,30.16,ESE,112,8.0,17.0,88,0.00,,,-99.99,Weather View 32 v70,2013-04-12 04:20:00,
2013-04-12 00:30:00,76.0,72.8,30.16,ESE,112,5.0,16.0,90,0.00,,,-99.99,Weather View 32 v70,2013-04-12 04:30:00,
2013-04-12 00:40:00,76.0,72.8,30.15,ESE,112,6.0,16.0,90,0.00,,,-99.99,Weather View 32 v70,2013-04-12 04:40:00,
2013-04-12 00:50:00,76.0,72.8,30.15,ESE,112,2.0,16.0,90,0.00,,,-99.99,Weather View 32 v70,2013-04-12 04:50:00,
2013-04-12 01:00:00,76.0,72.8,30.14,ESE,112,5.0,16.0,90,0.00,,,-99.99,Weather View 32 v70,2013-04-12 05:00:00,
2013-04-12 01:10:00,76.0,73.2,30.15,ESE,112,3.0,16.0,91,0.00,,,-99.99,Weather View 32 v70,2013-04-12 05:10:00,
2013-04-12 01:20:00,75.0,71.2,30.15,ESE,112,6.0,16.0,88,0.00,,,-99.99,Weather View 32 v70,2013-04-12 05:20:00,
2013-04-12 01:30:00,75.0,70.8,30.15,ESE,112,2.0,16.0,87,0.00,,,-99.99,Weather View 32 v70,2013-04-12 05:30:00,
2013-04-12 01:40:00,76.0,71.8,30.14,ESE,112,2.0,12.0,87,0.00,,,-99.99,Weather View 32 v70,2013-04-12 05:40:00,
2013-04-12 01:50:00,76.0,72.2,30.14,East,90,5.0,12.0,88,0.00,,,-99.99,Weather View 32 v70,2013-04-12 05:50:00,
2013-04-12 02:00:00,76.0,72.8,30.14,ESE,112,5.0,12.0,90,0.00,,,-99.99,Weather View 32 v70,2013-04-12 06:00:00,
2013-04-12 02:10:00,76.0,72.8,30.14,ESE,112,0.0,12.0,90,0.00,,,-99.99,Weather View 32 v70,2013-04-12 06:10:00,
2013-04-12 02:20:00,76.0,73.5,30.14,ESE,112,2.0,12.0,92,0.00,,,-99.99,Weather View 32 v70,2013-04-12 06:20:00,
2013-04-12 02:30:00,75.0,71.9,30.13,ESE,112,0.0,12.0,90,0.00,,,-99.99,Weather View 32 v70,2013-04-12 06:30:00,
2013-04-12 02:40:00,75.0,71.5,30.14,ESE,112,5.0,10.0,89,0.00,,,-99.99,Weather View 32 v70,2013-04-12 06:40:00,
2013-04-12 02:50:00,75.0,71.5,30.14,ESE,112,5.0,10.0,89,0.00,,,-99.99,Weather View 32 v70,2013-04-12 06:50:00,
2013-04-12 03:00:00,75.0,71.5,30.14,ESE,112,3.0,10.0,89,0.00,,,-99.99,Weather View 32 v70,2013-04-12 07:00:00,
2013-04-12 03:10:00,75.0,71.5,30.14,ESE,112,2.0,10.0,89,0.00,,,-99.99,Weather View 32 v70,2013-04-12 07:10:00,
2013-04-12 03:20:00,75.0,71.5,30.14,East,90,2.0,10.0,89,0.00,,,-99.99,Weather View 32 v70,2013-04-12 07:20:00,
2013-04-12 03:30:00,75.0,71.5,30.14,ESE,112,1.0,10.0,89,0.00,,,-99.99,Weather View 32 v70,2013-04-12 07:30:00,
2013-04-12 03:40:00,75.0,72.2,30.14,ESE,112,1.0,10.0,91,0.00,,,-99.99,Weather View 32 v70,2013-04-12 07:40:00,
2013-04-12 03:50:00,75.0,71.9,30.14,ESE,112,3.0,10.0,90,0.00,,,-99.99,Weather View 32 v70,2013-04-12 07:50:00,
2013-04-12 04:00:00,75.0,71.9,30.14,ESE,112,7.0,10.0,90,0.00,,,-99.99,Weather View 32 v70,2013-04-12 08:00:00,
2013-04-12 04:10:00,75.0,71.9,30.14,ESE,112,6.0,10.0,90,0.00,,,-99.99,Weather View 32 v70,2013-04-12 08:10:00,
2013-04-12 04:20:00,75.0,71.9,30.14,ESE,112,1.0,10.0,90,0.00,,,-99.99,Weather View 32 v70,2013-04-12 08:20:00,
2013-04-12 04:30:00,75.0,71.5,30.15,ESE,112,6.0,10.0,89,0.00,,,-99.99,Weather View 32 v70,2013-04-12 08:30:00,
2013-04-12 04:40:00,75.0,71.9,30.15,ESE,112,1.0,10.0,90,0.00,,,-99.99,Weather View 32 v70,2013-04-12 08:40:00,
2013-04-12 04:50:00,75.0,72.2,30.15,ESE,112,1.0,10.0,91,0.00,,,-99.99,Weather View 32 v70,2013-04-12 08:50:00,
2013-04-12 05:00:00,75.0,72.5,30.14,ESE,112,4.0,9.0,92,0.00,,,-99.99,Weather View 32 v70,2013-04-12 09:00:00,
2013-04-12 05:10:00,75.0,72.8,30.14,East,90,8.0,9.0,93,0.00,,,-99.99,Weather View 32 v70,2013-04-12 09:10:00,
2013-04-12 05:20:00,75.0,72.5,30.15,ESE,112,1.0,9.0,92,0.00,,,-99.99,Weather View 32 v70,2013-04-12 09:20:00,
2013-04-12 05:30:00,75.0,72.2,30.15,ESE,112,2.0,10.0,91,0.00,,,-99.99,Weather View 32 v70,2013-04-12 09:30:00,
2013-04-12 05:40:00,75.0,71.5,30.16,ESE,112,3.0,10.0,89,0.00,,,-99.99,Weather View 32 v70,2013-04-12 09:40:00,
2013-04-12 05:50:00,76.0,72.2,30.16,ESE,112,9.0,10.0,88,0.00,,,-99.99,Weather View 32 v70,2013-04-12 09:50:00,
2013-04-12 06:00:00,77.0,72.8,30.18,ESE,112,3.0,10.0,87,0.00,,,-99.99,Weather View 32 v70,2013-04-12 10:00:00,
2013-04-12 06:10:00,77.0,72.1,30.17,ESE,112,3.0,10.0,85,0.00,,,-99.99,Weather View 32 v70,2013-04-12 10:10:00,
2013-04-12 06:20:00,77.0,71.4,30.17,ESE,112,3.0,10.0,83,0.00,,,-99.99,Weather View 32 v70,2013-04-12 10:20:00,
2013-04-12 06:30:00,78.0,71.7,30.17,ESE,112,7.0,10.0,81,0.00,,,-99.99,Weather View 32 v70,2013-04-12 10:30:00,
2013-04-12 06:40:00,78.0,72.0,30.18,ESE,112,1.0,9.0,82,0.00,,,-99.99,Weather View 32 v70,2013-04-12 10:40:00,
2013-04-12 06:50:00,79.0,73.4,30.18,ESE,112,1.0,9.0,83,0.00,,,-99.99,Weather View 32 v70,2013-04-12 10:50:00,
2013-04-12 07:00:00,78.0,72.7,30.18,ESE,112,5.0,10.0,84,0.00,,,-99.99,Weather View 32 v70,2013-04-12 11:00:00,
2013-04-12 07:10:00,78.0,73.1,30.18,East,90,8.0,10.0,85,0.00,,,-99.99,Weather View 32 v70,2013-04-12 11:10:00,
2013-04-12 07:20:00,77.0,72.1,30.19,ESE,112,3.0,10.0,85,0.00,,,-99.99,Weather View 32 v70,2013-04-12 11:20:00,
2013-04-12 07:30:00,77.0,72.1,30.19,East,90,8.0,10.0,85,0.00,,,-99.99,Weather View 32 v70,2013-04-12 11:30:00,
2013-04-12 07:40:00,77.0,72.5,30.20,East,90,5.0,10.0,86,0.00,,,-99.99,Weather View 32 v70,2013-04-12 11:40:00,
2013-04-12 07:50:00,78.0,73.1,30.20,East,90,3.0,10.0,85,0.00,,,-99.99,Weather View 32 v70,2013-04-12 11:50:00,
2013-04-12 08:00:00,77.0,72.1,30.20,East,90,8.0,11.0,85,0.00,,,-99.99,Weather View 32 v70,2013-04-12 12:00:00,
2013-04-12 08:10:00,77.0,72.8,30.20,East,90,10.0,12.0,87,0.00,,,-99.99,Weather View 32 v70,2013-04-12 12:10:00,
2013-04-12 08:20:00,77.0,72.1,30.20,ESE,112,5.0,12.0,85,0.00,,,-99.99,Weather View 32 v70,2013-04-12 12:20:00,
2013-04-12 08:30:00,77.0,72.5,30.20,East,90,7.0,12.0,86,0.00,,,-99.99,Weather View 32 v70,2013-04-12 12:30:00,
2013-04-12 08:40:00,78.0,72.7,30.19,East,90,9.0,12.0,84,0.00,,,-99.99,Weather View 32 v70,2013-04-12 12:40:00,
2013-04-12 08:50:00,77.0,71.4,30.19,East,90,9.0,12.0,83,0.00,,,-99.99,Weather View 32 v70,2013-04-12 12:50:00,
2013-04-12 09:00:00,77.0,71.4,30.20,East,90,12.0,13.0,83,0.00,,,-99.99,Weather View 32 v70,2013-04-12 13:00:00,
2013-04-12 09:10:00,77.0,71.4,30.20,East,90,10.0,13.0,83,0.00,,,-99.99,Weather View 32 v70,2013-04-12 13:10:00,
2013-04-12 09:20:00,78.0,72.0,30.20,East,90,10.0,13.0,82,0.00,,,-99.99,Weather View 32 v70,2013-04-12 13:20:00,
2013-04-12 09:30:00,77.0,70.7,30.21,ESE,112,11.0,13.0,81,0.00,,,-99.99,Weather View 32 v70,2013-04-12 13:30:00,
2013-04-12 09:40:00,78.0,73.1,30.21,ENE,67,11.0,13.0,85,0.00,,,-99.99,Weather View 32 v70,2013-04-12 13:40:00,
2013-04-12 09:50:00,77.0,72.1,30.21,East,90,9.0,13.0,85,0.00,,,-99.99,Weather View 32 v70,2013-04-12 13:50:00,
2013-04-12 10:00:00,77.0,71.4,30.21,East,90,11.0,13.0,83,0.00,,,-99.99,Weather View 32 v70,2013-04-12 14:00:00,
2013-04-12 10:05:00,79.0,75.8,30.10,ESE,112,5.0,14.0,90,0.00,,,-99.99,Weather View 32 v70,2013-04-12 14:05:00,
2013-04-12 10:10:00,78.0,72.4,30.20,East,90,6.0,13.0,83,0.00,,,-99.99,Weather View 32 v70,2013-04-12 14:10:00,
2013-04-12 10:20:00,78.0,71.7,30.19,East,90,9.0,13.0,81,0.00,,,-99.99,Weather View 32 v70,2013-04-12 14:20:00,
2013-04-12 10:30:00,78.0,72.0,30.18,East,90,11.0,13.0,82,0.00,,,-99.99,Weather View 32 v70,2013-04-12 14:30:00,
2013-04-12 10:40:00,77.0,70.7,30.19,East,90,11.0,13.0,81,0.00,,,-99.99,Weather View 32 v70,2013-04-12 14:40:00,
2013-04-12 10:50:00,77.0,71.4,30.18,East,90,8.0,13.0,83,0.00,,,-99.99,Weather View 32 v70,2013-04-12 14:50:00,
2013-04-12 11:00:00,78.0,72.0,30.18,ESE,112,7.0,14.0,82,0.00,,,-99.99,Weather View 32 v70,2013-04-12 15:00:00,
2013-04-12 11:10:00,78.0,72.0,30.17,East,90,7.0,14.0,82,0.00,,,-99.99,Weather View 32 v70,2013-04-12 15:10:00,
2013-04-12 11:20:00,78.0,71.7,30.16,ESE,112,7.0,14.0,81,0.00,,,-99.99,Weather View 32 v70,2013-04-12 15:20:00,
2013-04-12 11:30:00,78.0,72.0,30.16,ESE,112,7.0,14.0,82,0.00,,,-99.99,Weather View 32 v70,2013-04-12 15:30:00,
2013-04-12 11:40:00,78.0,72.7,30.16,ENE,67,11.0,15.0,84,0.00,,,-99.99,Weather View 32 v70,2013-04-12 15:40:00,
2013-04-12 11:45:00,79.0,74.8,30.10,ENE,67,7.0,17.0,87,0.00,,,-99.99,Weather View 32 v70,2013-04-12 15:45:00,
2013-04-12 11:50:00,78.0,72.7,30.16,East,90,11.0,15.0,84,0.00,,,-99.99,Weather View 32 v70,2013-04-12 15:50:00,
2013-04-12 12:00:00,77.0,71.4,30.15,East,90,9.0,15.0,83,0.00,,,-99.99,Weather View 32 v70,2013-04-12 16:00:00,
2013-04-12 12:20:00,77.0,71.4,30.15,East,90,9.0,15.0,83,0.00,,,-99.99,Weather View 32 v70,2013-04-12 16:20:00,
2013-04-12 12:30:00,78.0,73.1,30.14,ENE,67,11.0,15.0,85,0.00,,,-99.99,Weather View 32 v70,2013-04-12 16:30:00,
2013-04-12 12:40:00,77.0,71.4,30.14,East,90,13.0,16.0,83,0.00,,,-99.99,Weather View 32 v70,2013-04-12 16:40:00,
2013-04-12 12:50:00,77.0,71.8,30.13,East,90,14.0,17.0,84,0.00,,,-99.99,Weather View 32 v70,2013-04-12 16:50:00,
2013-04-12 13:05:00,79.0,74.8,30.08,ESE,112,7.0,18.0,87,0.00,,,-99.99,Weather View 32 v70,2013-04-12 17:05:00,
2013-04-12 13:10:00,78.0,73.1,30.12,East,90,10.0,17.0,85,0.00,,,-99.99,Weather View 32 v70,2013-04-12 17:10:00,
2013-04-12 13:20:00,78.0,72.7,30.12,East,90,15.0,17.0,84,0.00,,,-99.99,Weather View 32 v70,2013-04-12 17:20:00,
2013-04-12 13:25:00,79.0,74.8,30.08,ESE,112,4.0,17.0,87,0.00,,,-99.99,Weather View 32 v70,2013-04-12 17:25:00,
2013-04-12 13:30:00,77.0,71.8,30.12,ENE,67,16.0,17.0,84,0.00,,,-99.99,Weather View 32 v70,2013-04-12 17:30:00,
2013-04-12 13:35:00,79.0,74.8,30.07,East,90,5.0,16.0,87,0.00,,,-99.99,Weather View 32 v70,2013-04-12 17:35:00,
2013-04-12 13:40:00,78.0,73.1,30.12,East,90,13.0,17.0,85,0.00,,,-99.99,Weather View 32 v70,2013-04-12 17:40:00,
2013-04-12 13:45:00,79.0,74.1,30.07,ESE,112,4.0,16.0,85,0.00,,,-99.99,Weather View 32 v70,2013-04-12 17:45:00,
2013-04-12 13:55:00,79.0,72.6,30.06,ESE,112,10.0,15.0,81,0.00,,,-99.99,Weather View 32 v70,2013-04-12 17:55:00,
2013-04-12 14:00:00,77.0,72.8,30.12,ENE,67,14.0,17.0,87,0.00,,,-99.99,Weather View 32 v70,2013-04-12 18:00:00,
2013-04-12 14:05:00,80.0,72.9,30.06,ESE,112,14.0,16.0,79,0.00,,,-99.99,Weather View 32 v70,2013-04-12 18:05:00,
2013-04-12 14:10:00,77.0,72.1,30.12,ENE,67,15.0,17.0,85,0.00,,,-99.99,Weather View 32 v70,2013-04-12 18:10:00,
2013-04-12 14:25:00,79.0,75.1,30.06,ESE,112,7.0,16.0,88,0.00,,,-99.99,Weather View 32 v70,2013-04-12 18:25:00,
2013-04-12 14:30:00,78.0,73.8,30.10,ENE,67,12.0,17.0,87,0.00,,,-99.99,Weather View 32 v70,2013-04-12 18:30:00,
2013-04-12 14:40:00,77.0,72.1,30.10,ENE,67,13.0,17.0,85,0.00,,,-99.99,Weather View 32 v70,2013-04-12 18:40:00,
2013-04-12 15:10:00,77.0,72.8,30.10,ENE,67,15.0,17.0,87,0.00,,,-99.99,Weather View 32 v70,2013-04-12 19:10:00,
2013-04-12 15:20:00,77.0,72.5,30.10,ENE,67,15.0,17.0,86,0.00,,,-99.99,Weather View 32 v70,2013-04-12 19:20:00,
2013-04-12 15:40:00,77.0,73.2,30.10,ENE,67,13.0,19.0,88,0.00,,,-99.99,Weather View 32 v70,2013-04-12 19:40:00,
2013-04-12 15:50:00,77.0,73.2,30.09,East,90,13.0,19.0,88,0.00,,,-99.99,Weather View 32 v70,2013-04-12 19:50:00,
2013-04-12 16:00:00,77.0,73.2,30.09,ENE,67,12.0,19.0,88,0.00,,,-99.99,Weather View 32 v70,2013-04-12 20:00:00,
2013-04-12 16:10:00,77.0,73.8,30.10,ENE,67,13.0,19.0,90,0.00,,,-99.99,Weather View 32 v70,2013-04-12 20:10:00,
2013-04-12 16:30:00,77.0,73.2,30.09,ENE,67,13.0,19.0,88,0.00,,,-99.99,Weather View 32 v70,2013-04-12 20:30:00,
2013-04-12 17:00:00,77.0,74.2,30.09,East,90,12.0,17.0,91,0.00,,,-99.99,Weather View 32 v70,2013-04-12 21:00:00,
2013-04-12 17:50:00,77.0,74.8,30.09,ESE,112,2.0,16.0,93,0.00,,,-99.99,Weather View 32 v70,2013-04-12 21:50:00,
2013-04-12 18:00:00,76.0,73.5,30.10,East,90,4.0,14.0,92,0.00,,,-99.99,Weather View 32 v70,2013-04-12 22:00:00,
2013-04-12 18:10:00,76.0,72.8,30.11,ESE,112,6.0,13.0,90,0.00,,,-99.99,Weather View 32 v70,2013-04-12 22:10:00,
2013-04-12 18:30:00,77.0,74.2,30.11,ESE,112,5.0,13.0,91,0.00,,,-99.99,Weather View 32 v70,2013-04-12 22:30:00,